Location: Dessau
(51.7984°N, 12.2168°E)
Time: 04:59:47
(UTC+01:00)

ISS - Visible Passes

Search period start: 18 January 2018 00:00
Search period end: 28 January 2018 00:00
Orbit: 402 x 407 km, 51.6° (Epoch: 18 January)

Date Brightness Start Highest point End Pass type
(mag) Time Alt. Az. Time Alt. Az. Time Alt. Az.
26 Jan -1.5 18:55:12 10° S 18:56:18 15° S 18:56:18 15° S visible
27 Jan -1.5 18:04:11 10° SSE 18:05:23 12° SE 18:06:18 11° ESE visible
27 Jan -1.2 19:38:06 10° SW 19:38:58 17° SW 19:38:58 17° SW visible
